Weather History for Monterey, CA

Change the Weather History Date:

Wednesday, October 30, 2013

  Actual Average Record
Temperature  
Mean Temperature 53 °F 57 °F  
Max Temperature 61 °F 66 °F 81 °F (1999)
Min Temperature 44 °F 48 °F 44 °F (2005)
Degree Days  
Heating Degree Days 12    
Month to date heating degree days 235  
Since 1 July heating degree days 484  
Cooling Degree Days 0    
Month to date cooling degree days 14  
Year to date cooling degree days 49  
Growing Degree Days 2 (Base 50)    
Moisture  
Dew Point 45 °F    
Average Humidity 80    
Maximum Humidity 92    
Minimum Humidity 67    
Precipitation  
Precipitation 0.00 in - 0.17 in (1950)
Month to date precipitation 0.42  
Year to date precipitation 3.70  
Since 1 July precipitation 0.55  
Sea Level Pressure  
Sea Level Pressure 30.14 in    
Wind  
Wind Speed 4 mph (ENE)    
Max Wind Speed 9 mph    
Max Gust Speed 13 mph    
Visibility 10 miles    
Events      
T = Trace of Precipitation, MM = Missing Value Source: NWS Daily Summary

Daily Weather History Graph

Daily Weather History Graph

Search for Another Location

Airport:

Trip Planner

Search our weather history database for the weather conditions in past years. The results will help you decide how hot, cold, wet, or windy it might be!

Date:

Astronomy

Oct. 30, 2013 Rise Set
Actual Time 7:29 AM PDT 6:12 PM PDT
Civil Twilight 7:02 AM PDT 6:38 PM PDT
Nautical Twilight 6:32 AM PDT 7:09 PM PDT
Astronomical Twilight 6:01 AM PDT 7:39 PM PDT
Moon 3:29 AM PDT (10/30) 3:55 PM PDT (10/30)
Length of Visible Light 11h 36m
Length of Day
10h 43m
Waning Crescent, 16% of the Moon is Illuminated
Oct 30
Waning Crescent
Nov 3
New
Nov 9
First Quarter
Nov 17
Full
Nov 25
Last Quarter

Hourly Weather History & Observations

Time (PDT) Temp. Windchill Dew Point Humidity Pressure Visibility Wind Dir Wind Speed Gust Speed Precip Events Conditions
12:54 AM 48.9 °F - 44.1 °F 83% 30.11 in 10.0 mi Calm Calm - N/A   Clear
1:54 AM 48.0 °F - 44.1 °F 86% 30.11 in 10.0 mi Calm Calm - N/A   Clear
2:54 AM 46.9 °F - 43.0 °F 86% 30.10 in 10.0 mi East 5.8 mph - N/A   Clear
3:54 AM 46.9 °F - 43.0 °F 86% 30.10 in 10.0 mi East 6.9 mph - N/A   Clear
4:54 AM 45.0 °F 43.5 °F 42.1 °F 90% 30.11 in 10.0 mi East 3.5 mph - N/A   Clear
5:54 AM 46.0 °F 43.1 °F 43.0 °F 89% 30.12 in 10.0 mi East 5.8 mph - N/A   Clear
6:54 AM 45.0 °F 42.6 °F 41.0 °F 86% 30.14 in 10.0 mi East 4.6 mph - N/A   Clear
7:54 AM 44.1 °F 41.5 °F 41.0 °F 89% 30.14 in 10.0 mi East 4.6 mph - N/A   Clear
8:54 AM 50.0 °F - 44.1 °F 80% 30.17 in 10.0 mi Calm Calm - N/A   Clear
9:54 AM 55.9 °F - 46.0 °F 69% 30.18 in 10.0 mi Calm Calm - N/A   Clear
10:54 AM 57.9 °F - 46.9 °F 67% 30.18 in 10.0 mi WSW 5.8 mph - N/A   Clear
11:54 AM 57.9 °F - 46.9 °F 67% 30.18 in 10.0 mi West 8.1 mph - N/A   Clear
12:54 PM 57.0 °F - 46.9 °F 69% 30.17 in 10.0 mi WNW 8.1 mph - N/A   Clear
1:54 PM 59.0 °F - 48.0 °F 67% 30.15 in 10.0 mi WNW 5.8 mph - N/A   Clear
2:54 PM 59.0 °F - 50.0 °F 72% 30.14 in 10.0 mi NNW 4.6 mph - N/A   Clear
3:54 PM 59.0 °F - 50.0 °F 72% 30.13 in 10.0 mi West 8.1 mph - N/A   Clear
4:54 PM 59.0 °F - 48.9 °F 69% 30.12 in 10.0 mi WNW 4.6 mph - N/A   Clear
5:54 PM 57.0 °F - 48.0 °F 72% 30.13 in 10.0 mi WNW 4.6 mph - N/A   Clear
6:54 PM 55.0 °F - 46.9 °F 74% 30.14 in 10.0 mi SE 3.5 mph - N/A   Clear
7:54 PM 53.1 °F - 46.0 °F 77% 30.15 in 10.0 mi Calm Calm - N/A   Clear
8:54 PM 52.0 °F - 45.0 °F 77% 30.16 in 10.0 mi East 3.5 mph - N/A   Clear
9:54 PM 52.0 °F - 45.0 °F 77% 30.16 in 10.0 mi East 5.8 mph - N/A   Clear
10:54 PM 51.1 °F - 45.0 °F 80% 30.17 in 10.0 mi East 3.5 mph - N/A   Clear
11:54 PM 50.0 °F - 44.1 °F 80% 30.16 in 10.0 mi East 3.5 mph - N/A   Clear